Location: Grand Lay
(47.3253°N, 0.9468°E)
Time: 19:55:47
(UTC+00:00)

Gbstr 26 Del rocket - Pass Details

Date: 14 April 2026
Orbit: 490 x 1216 km, 51.8° (Epoch: 13 May)

Event Time Altitude Azimuth Distance (km) Brightness Sun altitude
Exits shadow 01:32:25 21° 59° (ENE) 1,166 5.0 -29.4°
Drops below altitude 10° 01:33:44 10° 63° (ENE) 1,685 5.9 -29.3°
Sets 01:35:52 0° 67° (ENE) 2,567 7.0 -29.2°
